User: anonymous   Login
Location: Unspecified
(0.0000°N, 0.0000°E)
Time: 01:09:52
(UTC+00:00)
Language:

SES MPOWER-A F2 - Orbit

View from above orbital plane
View from above orbital plane
View from above satellite
View from above satellite

Ground track
Ground track

The orbit is defined by the following mean orbital elements,

1 54756U          26145.52249345 +.00000000 +00000-0 +00000-0 0 00002
2 54756   0.0515 342.7093 0005927  77.7518 299.5977  5.00115198    04
Epoch (UTC): 25 May 2026 12:32:23
Eccentricity: 0.0005927
inclination: 0.0515°
perigee height: 8057 km
apogee height: 8074 km
right ascension of ascending node: 342.7093°
argument of perigee: 77.7518°
revolutions per day: 5.00115198
mean anomaly at epoch: 299.5977°

The dashed part of the orbit path shows where the satellite is in the earth's shadow,  

DLR